TimeCDT,TemperatureF,Dew PointF,Humidity,Sea Level PressureIn,VisibilityMPH,Wind Direction,Wind SpeedMPH,Gust SpeedMPH,PrecipitationIn,Events,Conditions,WindDirDegrees,DateUTC
12:56 AM,51.1,48.0,89,30.01,8.0,Calm,Calm,-,N/A,,Partly Cloudy,0,2013-04-02 05:56:00
1:56 AM,50.0,46.9,89,30.01,6.0,Calm,Calm,-,N/A,,Clear,0,2013-04-02 06:56:00
2:56 AM,46.9,45.0,93,30.01,5.0,Calm,Calm,-,0.00,,Clear,0,2013-04-02 07:56:00
3:56 AM,46.9,44.1,90,30.01,7.0,SSW,3.5,-,N/A,,Clear,210,2013-04-02 08:56:00
4:56 AM,48.0,45.0,89,30.04,6.0,WNW,3.5,-,N/A,,Clear,300,2013-04-02 09:56:00
5:56 AM,45.0,42.1,90,30.04,6.0,Calm,Calm,-,N/A,,Partly Cloudy,0,2013-04-02 10:56:00
6:56 AM,45.0,42.1,90,30.05,6.0,Calm,Calm,-,N/A,,Mostly Cloudy,0,2013-04-02 11:56:00
7:56 AM,55.0,51.1,86,30.08,8.0,NNE,5.8,-,N/A,,Mostly Cloudy,20,2013-04-02 12:56:00
8:56 AM,63.0,46.9,56,30.09,10.0,East,8.1,-,N/A,,Scattered Clouds,80,2013-04-02 13:56:00
9:56 AM,71.1,46.0,41,30.10,10.0,East,9.2,-,N/A,,Mostly Cloudy,90,2013-04-02 14:56:00
10:56 AM,75.9,44.1,32,30.09,10.0,SE,10.4,-,N/A,,Mostly Cloudy,130,2013-04-02 15:56:00
11:56 AM,79.0,41.0,26,30.08,10.0,South,9.2,16.1,N/A,,Mostly Cloudy,170,2013-04-02 16:56:00
12:56 PM,79.0,37.9,23,30.06,10.0,SSE,5.8,-,N/A,,Mostly Cloudy,160,2013-04-02 17:56:00
1:56 PM,79.0,39.9,25,30.03,10.0,SSW,15.0,-,N/A,,Mostly Cloudy,210,2013-04-02 18:56:00
2:56 PM,80.1,39.9,24,30.01,10.0,South,11.5,-,N/A,,Mostly Cloudy,180,2013-04-02 19:56:00
3:56 PM,79.0,39.9,25,30.00,10.0,SSW,11.5,-,N/A,,Mostly Cloudy,200,2013-04-02 20:56:00
4:56 PM,75.9,42.1,30,29.99,10.0,SSW,15.0,-,N/A,,Mostly Cloudy,200,2013-04-02 21:56:00
5:56 PM,73.9,43.0,33,30.00,10.0,SSW,11.5,-,N/A,,Mostly Cloudy,200,2013-04-02 22:56:00
6:56 PM,69.1,44.1,40,30.01,10.0,SSW,6.9,-,N/A,,Mostly Cloudy,200,2013-04-02 23:56:00
7:56 PM,66.0,46.9,50,30.02,10.0,South,8.1,-,N/A,,Mostly Cloudy,180,2013-04-03 00:56:00
8:56 PM,62.1,50.0,65,30.02,10.0,South,3.5,-,N/A,,Mostly Cloudy,170,2013-04-03 01:56:00
9:56 PM,59.0,51.1,75,30.03,10.0,Calm,Calm,-,N/A,,Mostly Cloudy,0,2013-04-03 02:56:00
10:56 PM,55.9,48.9,77,30.02,10.0,Calm,Calm,-,N/A,,Mostly Cloudy,0,2013-04-03 03:56:00
11:56 PM,55.0,48.0,77,30.01,10.0,Calm,Calm,-,N/A,,Mostly Cloudy,0,2013-04-03 04:56:00